Temperature
18 17 16 15 15 15 15 15 14 14 14 14 14 14 14 14 14 14 14 14 14 14 13 13 13 13 13 13 13 14 14 14 14 14 14 14 13 13 13 14 13 13 14
19 17 16 15 15 15 15 14 14 14 14 14 13 13 13 13 13 13 13 13 13 13 13 12 12 12 12 13 13 13 14 14 14 14 13 13 13 12 13 13 13 13 13
19 17 16 15 15 14 14 14 14 14 14 13 13 13 13 13 13 13 12 12 12 12 12 12 12 12 12 12 13 13 14 14 14 13 12 11 11 11 11 12 12 12 12
18 17 15 15 14 14 14 14 14 14 13 13 13 13 12 12 12 12 12 12 12 12 12 12 12 12 12 12 13 13 13 13 13 12 11 10 10 10 10 11 11 11 11
17 16 15 15 14 14 14 14 13 13 13 13 13 12 12 12 12 12 12 12 12 12 12 12 11 11 12 12 13 13 13 13 13 11 11 10 10 10 10 10 10 10 10
16 15 15 14 14 14 14 14 13 13 13 13 13 12 12 12 12 12 11 12 12 12 11 11 11 11 11 12 12 12 12 12 11 10 10 10 10 9 9 10 10 10 10
16 15 14 14 14 14 14 13 13 13 13 13 12 12 12 11 11 12 11 11 11 11 11 11 11 11 11 11 11 11 11 11 10 10 10 9 9 9 9 9 10 10 10
16 15 14 14 14 14 13 13 13 13 13 12 12 12 11 11 11 11 11 11 11 11 11 11 10 10 10 10 11 11 11 10 10 9 9 9 9 9 9 9 9 9 9
15 14 14 14 14 13 13 13 13 13 13 12 12 12 11 11 11 11 11 11 11 11 11 10 10 10 10 10 10 10 10 10 9 9 9 9 9 9 9 9 9 9 9
15 14 14 13 13 13 13 13 13 13 12 12 12 12 12 11 11 11 11 11 11 10 10 10 10 10 10 10 10 10 10 9 9 9 8 9 9 9 8 8 9 9 9
15 14 14 13 13 13 13 13 12 12 12 12 12 12 11 11 10 11 10 11 10 10 10 10 10 10 10 10 10 9 9 9 8 8 8 8 8 8 8 8 8 8 8
15 14 14 13 13 13 13 12 12 12 12 11 11 11 11 10 10 10 10 10 10 10 10 10 10 10 9 9 9 9 8 8 8 8 8 8 8 8 8 8 8 8 8
16 15 14 14 13 13 13 12 12 12 12 11 11 11 11 10 10 10 10 10 10 10 9 9 9 9 9 9 9 9 9 8 8 8 8 8 8 8 8 8 8 8 8
16 16 15 14 14 13 13 12 12 12 12 12 11 11 11 11 11 10 10 10 9 9 9 9 9 9 9 9 9 9 9 9 8 8 8 8 8 8 8 7 7 7 7
16 16 16 15 14 14 13 13 12 12 12 12 12 11 11 11 11 10 10 10 9 9 9 9 9 9 9 9 9 9 9 9 8 8 8 8 8 8 8 7 7 7 7
17 17 16 15 15 14 13 13 13 12 12 12 12 12 11 11 11 10 10 10 9 9 9 9 9 9 9 9 9 9 9 8 8 8 8 8 8 8 8 7 7 7 7
18 17 17 16 15 14 14 13 13 13 12 12 12 12 11 11 11 10 10 10 9 9 9 9 9 9 9 9 9 9 9 8 8 8 8 8 8 8 8 8 7 7 7
17 17 17 16 16 15 14 14 13 13 12 12 12 12 11 11 11 10 10 10 9 9 9 9 9 9 9 9 9 9 9 9 8 8 8 8 8 7 8 8 8 7 7
17 17 17 17 16 15 14 14 13 13 13 12 12 12 12 11 11 10 10 10 9 9 9 9 9 9 9 9 9 9 9 9 8 8 8 8 8 8 7 8 7 7 7
17 16 16 16 16 15 14 13 13 12 12 12 12 12 12 11 11 10 10 10 9 9 9 9 9 9 9 9 9 9 9 9 8 8 8 8 8 8 7 7 7 7 7
16 16 16 16 16 15 14 14 13 13 13 13 12 12 12 11 11 10 10 10 9 9 9 9 9 9 9 8 8 8 9 9 8 8 8 8 8 8 8 7 7 7 7
17 17 17 17 16 16 16 16 16 14 13 12 12 12 12 12 11 11 10 10 10 9 9 9 9 9 9 9 8 8 8 8 9 9 8 8 8 8 7 7 7 7 7
17 17 17 17 17 17 16 15 14 13 12 12 12 12 12 12 11 11 10 10 10 9 9 9 9 9 9 9 8 8 8 9 8 8 8 8 8 7 7 7 7 7 7
18 18 18 18 17 17 16 15 14 14 14 15 14 13 12 12 11 11 10 10 10 10 9 9 9 9 9 9 9 8 8 8 8 8 8 8 8 8 7 7 7 7 6
19 18 18 18 17 17 16 16 15 15 15 14 13 12 12 12 11 11 10 10 10 10 10 9 9 9 9 9 9 9 8 8 8 8 8 8 8 8 7 7 7 6 6
18 18 18 18 17 17 16 16 16 16 15 13 13 12 12 12 11 11 11 10 10 10 10 10 9 9 9 9 9 9 9 8 8 8 8 7 7 7 8 7 7 6 6
Wind_Speed
15 21 23 23 21 20 18 17 16 16 15 15 15 15 14 14 15 15 15 15 15 15 15 15 16 16 17 17 17 17 17 18 17 18 18 17 17 17 17 16 14 15 18
20 23 25 24 23 21 19 18 17 16 15 15 15 14 14 14 14 15 15 15 14 14 15 15 15 15 16 16 16 16 16 16 16 15 14 15 17 17 17 17 16 15 16
22 24 26 25 23 22 20 19 18 17 16 15 15 14 14 14 14 14 14 14 14 14 14 14 15 15 15 15 15 15 15 15 14 12 11 12 14 15 15 15 15 15 15
22 23 25 25 24 23 21 20 18 17 16 15 15 14 14 14 14 14 14 14 14 14 14 13 14 14 14 14 14 14 14 14 13 9 11 12 12 14 14 14 14 14 14
21 22 24 26 25 23 22 20 19 18 17 16 15 15 14 14 14 14 14 14 14 13 13 13 13 13 13 14 14 14 13 12 10 10 11 11 11 12 12 12 12 12 12
21 21 24 25 25 24 22 21 20 18 17 16 15 14 14 14 14 14 14 14 13 13 13 13 12 13 13 13 13 13 12 9 7 10 10 10 10 10 11 10 10 10 10
20 20 24 24 25 23 22 21 20 19 17 16 16 15 14 14 14 14 13 13 13 12 12 12 12 12 12 12 12 12 10 7 8 8 8 9 10 10 10 10 10 10 10
20 19 23 24 24 24 22 21 20 19 18 17 16 15 15 15 14 14 13 13 12 12 12 12 11 11 11 11 11 10 8 5 7 7 7 8 10 9 10 10 10 9 9
18 18 20 23 23 23 22 21 20 19 18 17 16 16 15 14 14 13 13 12 12 12 11 11 10 10 10 10 10 9 7 4 5 6 6 7 9 8 9 9 9 9 9
17 17 18 21 22 22 21 21 20 19 18 18 16 16 15 14 14 13 12 12 11 11 10 10 9 10 10 9 9 7 4 1 6 5 5 7 7 7 8 8 8 8 8
17 17 17 18 19 20 20 21 20 19 18 18 16 16 15 13 13 12 11 11 11 10 9 9 9 9 9 9 7 5 2 3 4 4 5 7 6 7 7 8 8 9 9
22 20 18 18 18 18 17 19 18 17 17 16 15 16 13 11 11 11 13 11 10 9 9 9 9 8 5 6 6 3 2 3 3 3 5 6 6 6 7 8 8 9 9
23 21 19 18 17 17 14 16 14 14 15 15 15 15 12 11 10 10 10 10 10 9 8 8 7 5 4 3 3 2 3 2 2 2 4 6 6 6 6 7 8 8 9
22 22 20 19 17 17 16 14 14 13 13 13 14 15 13 10 10 10 8 9 8 7 6 6 4 5 4 3 2 2 1 1 1 2 5 6 5 5 5 7 8 8 8
22 23 22 21 19 17 15 13 13 13 13 14 14 15 14 10 9 10 8 8 8 7 7 5 5 4 4 3 2 1 1 1 1 1 3 6 5 5 5 6 7 8 8
22 23 22 22 20 18 16 14 13 13 14 14 14 15 15 12 11 10 9 8 8 7 6 5 5 4 3 2 2 1 1 1 1 1 2 4 6 6 6 6 7 7 8
23 23 23 22 21 20 18 16 13 13 14 13 14 16 16 14 13 11 9 8 8 8 7 6 5 4 3 2 2 1 1 0 1 1 1 1 3 6 6 6 6 6 7
21 22 23 20 22 21 19 16 13 14 14 13 14 15 17 16 15 12 9 9 9 8 7 6 5 4 3 3 2 1 1 1 1 1 2 2 1 2 4 6 5 6 6
22 22 23 23 23 22 19 16 14 14 14 14 15 15 17 18 16 13 10 10 11 9 7 6 5 5 4 3 2 1 1 1 2 2 2 2 2 1 1 4 4 5 5
21 21 22 22 22 20 17 14 12 13 13 14 14 15 18 18 18 15 11 12 12 9 8 7 7 5 4 3 3 2 1 1 2 2 3 3 3 2 1 0 0 2 4
21 22 23 23 22 19 16 16 16 16 15 14 13 17 19 19 19 16 11 12 11 10 10 9 7 7 5 4 3 2 2 3 3 3 3 3 3 3 2 2 2 1 0
23 24 24 24 23 23 19 18 17 16 14 13 11 15 19 20 19 17 15 12 12 10 11 11 9 6 5 5 4 3 3 4 4 3 3 3 4 4 4 3 3 2 2
23 25 23 25 25 25 23 17 14 12 11 12 15 15 18 20 20 19 18 15 13 13 11 12 12 10 7 6 6 4 3 3 2 4 4 4 4 4 4 4 4 4 4
24 23 24 25 25 25 24 20 21 18 17 19 16 15 17 20 20 20 19 17 15 13 13 12 12 10 9 7 5 5 4 2 3 2 4 5 5 5 5 4 5 5 5
22 21 22 24 24 25 25 25 24 21 19 16 16 17 17 17 18 19 19 17 15 14 14 13 12 12 9 9 6 5 5 4 5 5 4 4 5 5 5 5 5 6 6
18 19 20 22 23 24 25 25 26 25 22 19 19 18 16 14 15 18 18 17 16 14 14 13 13 14 11 10 8 7 6 5 5 6 6 5 5 4 5 5 6 6 6
Wind_Direction
165 163 163 159 156 152 149 146 141 136 131 128 122 116 111 108 104 101 99 96 95 92 91 89 86 83 80 78 75 73 70 68 65 62 62 63 62 60 56 50 48 53 48
158 161 161 158 156 154 151 146 142 137 133 130 126 122 117 113 109 106 103 100 97 95 93 91 88 85 83 81 79 77 74 72 68 65 66 69 64 60 58 55 52 53 50
156 159 160 159 157 155 152 148 144 141 137 134 131 128 123 118 113 110 106 102 98 97 96 93 89 87 86 84 81 79 77 74 69 68 69 69 67 61 59 56 54 53 51
156 159 161 158 158 156 152 149 147 144 141 138 135 133 129 123 119 115 111 106 103 101 99 96 93 90 89 87 84 81 78 74 68 65 67 64 65 61 57 55 53 51 50
157 160 158 159 158 156 154 151 150 147 144 141 139 137 133 129 125 120 114 110 107 105 103 100 97 95 93 90 86 83 79 74 72 72 69 64 64 59 57 53 51 49 48
159 160 157 161 159 157 155 153 152 150 148 147 144 141 137 131 127 122 118 114 111 109 107 104 102 100 96 93 89 85 80 73 81 73 68 60 60 58 55 51 47 45 43
160 160 160 164 160 159 157 156 154 152 151 150 148 145 139 133 129 126 122 119 116 114 111 107 104 102 99 96 92 87 80 64 73 74 66 58 50 48 50 45 41 39 38
160 161 162 165 162 161 160 158 156 155 153 152 150 147 142 137 133 129 127 124 121 118 115 112 109 105 102 99 95 89 78 63 83 74 64 58 43 42 43 38 34 33 32
162 164 165 168 166 164 161 160 159 159 156 155 152 148 144 142 140 137 133 130 125 121 119 116 112 109 104 101 98 91 80 47 77 72 61 51 33 36 39 34 30 29 28
167 169 170 171 170 168 165 163 162 161 159 157 152 147 144 145 144 141 140 133 129 127 124 120 115 111 105 100 98 96 99 159 78 77 61 45 23 29 35 34 32 30 29
175 176 177 174 173 171 169 165 164 163 162 157 154 147 152 156 151 150 141 138 134 131 127 121 117 113 115 109 102 108 165 85 83 64 55 26 14 22 30 34 35 34 34
181 181 181 179 176 173 169 168 171 170 167 170 166 163 167 162 156 151 138 142 137 134 130 121 122 131 148 127 124 168 105 90 84 71 53 17 12 18 24 33 36 36 38
182 181 183 182 180 176 172 173 174 173 173 177 173 172 169 163 159 161 158 155 154 156 151 140 156 148 141 118 124 110 78 75 67 67 59 27 12 16 28 36 39 43 44
184 185 184 183 182 181 178 178 177 176 177 178 179 177 173 171 172 171 171 167 167 168 161 164 158 146 145 143 140 124 112 85 61 50 58 37 19 24 33 41 47 44 43
187 187 187 186 185 184 184 182 183 182 180 181 180 183 180 177 178 176 176 174 176 171 172 174 172 160 160 150 145 155 106 97 76 67 82 60 36 37 42 46 43 41 43
192 190 188 189 188 186 187 186 186 186 183 183 183 186 185 184 182 182 180 181 181 180 179 181 177 171 166 161 155 149 130 128 108 96 85 91 67 51 47 44 42 40 38
194 191 190 190 190 190 191 190 188 188 187 188 187 189 190 189 187 186 185 185 185 182 182 184 175 177 168 166 170 154 145 137 152 130 121 102 95 75 58 46 41 36 31
196 193 192 190 192 193 193 192 191 191 190 192 191 191 193 193 191 189 189 190 186 183 186 186 184 185 182 183 178 159 175 172 184 152 161 155 122 107 81 57 44 34 26
198 195 193 192 194 194 193 193 193 192 194 195 194 194 195 196 194 194 194 191 186 187 191 187 193 192 187 182 175 171 190 198 177 190 182 166 145 127 91 88 65 44 28
200 196 195 194 195 193 192 194 194 196 198 198 197 197 196 197 197 197 196 195 190 191 192 191 189 188 192 179 166 176 191 197 200 200 192 184 175 170 184 177 141 71 42
199 197 196 195 194 191 191 193 195 199 199 200 200 200 199 199 197 198 196 196 196 198 196 194 188 184 188 181 186 194 193 197 204 200 206 204 191 194 206 222 245 268 324
200 198 198 197 195 194 196 196 199 199 200 199 198 203 202 201 199 199 199 197 197 199 198 195 192 191 186 194 210 214 213 201 199 208 208 214 213 207 214 225 231 243 267
202 200 199 198 197 197 197 194 194 194 195 197 201 203 204 203 201 200 202 200 199 201 201 199 196 196 194 195 214 223 233 234 181 191 206 214 216 221 223 225 233 237 243
204 201 201 200 199 198 195 194 192 194 198 203 201 201 201 202 203 202 202 203 201 203 204 202 200 201 196 193 199 226 247 262 232 214 203 212 221 232 233 227 231 232 235
204 200 201 200 200 198 197 197 197 201 205 203 200 200 199 200 202 202 202 203 203 204 205 200 197 200 201 202 194 193 208 222 237 243 244 221 223 227 231 237 235 233 234
202 198 199 199 201 199 198 199 201 204 204 199 198 197 197 197 200 202 202 203 204 203 203 201 199 201 203 205 201 195 195 201 211 222 242 246 244 230 232 236 234 231 234
Height
1504 1508 1511 1515 1518 1521 1523 1526 1527 1529 1531 1532 1533 1534 1535 1536 1536 1537 1537 1538 1538 1539 1539 1540 1539 1539 1539 1539 1538 1538 1538 1538 1538 1538 1538 1537 1537 1536 1536 1536 1536 1535 1534
1502 1507 1510 1514 1518 1520 1523 1525 1527 1529 1530 1532 1533 1534 1535 1536 1537 1537 1538 1538 1539 1539 1540 1540 1540 1540 1539 1539 1539 1539 1539 1539 1539 1539 1539 1539 1538 1537 1536 1536 1535 1535 1534
1502 1506 1510 1513 1517 1520 1523 1525 1527 1528 1530 1532 1533 1535 1536 1537 1537 1538 1538 1539 1539 1540 1540 1540 1540 1540 1540 1540 1540 1540 1540 1540 1540 1540 1540 1541 1539 1538 1537 1537 1536 1535 1535
1502 1506 1509 1513 1517 1520 1523 1525 1527 1528 1530 1532 1533 1535 1536 1537 1538 1538 1539 1539 1540 1540 1541 1541 1541 1541 1541 1541 1541 1540 1541 1541 1541 1541 1542 1542 1541 1539 1539 1538 1537 1536 1535
1502 1506 1510 1513 1517 1520 1522 1525 1527 1528 1530 1532 1534 1535 1536 1537 1538 1539 1539 1540 1540 1541 1541 1542 1542 1542 1542 1542 1542 1542 1542 1542 1542 1543 1543 1543 1542 1541 1540 1539 1538 1537 1537
1502 1506 1510 1513 1517 1520 1522 1525 1527 1529 1530 1532 1534 1535 1537 1538 1539 1539 1540 1540 1541 1541 1542 1542 1543 1543 1543 1543 1543 1543 1543 1543 1544 1544 1544 1544 1544 1542 1541 1540 1540 1539 1538
1502 1507 1510 1514 1517 1520 1523 1525 1527 1529 1531 1532 1534 1535 1537 1538 1539 1540 1540 1541 1542 1542 1543 1543 1544 1544 1544 1544 1544 1544 1544 1544 1545 1545 1545 1545 1544 1543 1543 1542 1541 1540 1539
1502 1506 1510 1514 1517 1520 1523 1525 1527 1529 1531 1532 1534 1536 1537 1538 1539 1540 1541 1542 1543 1543 1544 1544 1545 1545 1545 1545 1545 1545 1545 1545 1546 1546 1546 1546 1545 1544 1544 1543 1542 1541 1540
1503 1506 1510 1514 1517 1520 1523 1525 1527 1529 1531 1533 1534 1536 1537 1538 1540 1541 1542 1543 1543 1544 1545 1545 1546 1546 1546 1546 1546 1546 1546 1546 1548 1547 1547 1547 1546 1545 1544 1543 1542 1541 1540
1502 1506 1510 1513 1517 1519 1522 1525 1527 1529 1531 1533 1534 1536 1537 1539 1540 1541 1542 1543 1544 1545 1545 1546 1546 1547 1547 1547 1547 1547 1547 1548 1549 1548 1548 1547 1546 1546 1545 1544 1543 1542 1541
1501 1504 1508 1512 1516 1519 1521 1524 1526 1529 1531 1533 1534 1536 1538 1540 1541 1542 1543 1544 1545 1545 1546 1546 1547 1547 1548 1548 1548 1548 1549 1550 1550 1549 1548 1547 1547 1546 1546 1545 1543 1542 1541
1496 1501 1505 1510 1513 1517 1520 1522 1525 1528 1530 1532 1534 1535 1538 1540 1541 1542 1543 1544 1545 1545 1546 1547 1547 1548 1549 1549 1549 1549 1550 1550 1550 1550 1549 1547 1547 1547 1546 1545 1544 1543 1542
1493 1498 1502 1507 1511 1514 1517 1521 1524 1526 1528 1531 1533 1535 1537 1538 1540 1541 1543 1544 1545 1545 1547 1547 1548 1549 1549 1550 1550 1550 1550 1550 1551 1550 1549 1547 1547 1547 1546 1545 1544 1543 1542
1492 1495 1499 1503 1508 1512 1515 1518 1521 1524 1526 1529 1531 1534 1535 1537 1539 1540 1542 1543 1545 1545 1546 1547 1548 1549 1549 1549 1550 1550 1550 1550 1550 1550 1548 1547 1547 1546 1546 1545 1544 1543 1542
1488 1492 1496 1500 1504 1508 1512 1515 1519 1521 1524 1527 1529 1531 1534 1535 1537 1539 1541 1542 1544 1545 1546 1547 1548 1549 1549 1549 1549 1550 1550 1550 1550 1549 1548 1547 1547 1546 1546 1545 1544 1543 1542
1485 1488 1492 1496 1501 1505 1508 1512 1515 1519 1522 1525 1527 1529 1532 1534 1536 1537 1539 1541 1543 1544 1545 1546 1547 1548 1549 1549 1549 1549 1549 1549 1549 1549 1548 1547 1546 1546 1545 1545 1544 1543 1542
1481 1485 1488 1492 1497 1501 1505 1509 1512 1515 1518 1521 1524 1527 1529 1532 1534 1536 1538 1539 1541 1542 1544 1545 1546 1547 1548 1548 1548 1549 1549 1548 1548 1548 1547 1547 1546 1545 1545 1544 1543 1542 1541
1478 1481 1485 1489 1493 1497 1501 1505 1509 1512 1515 1518 1521 1524 1526 1529 1531 1534 1535 1537 1539 1541 1542 1544 1545 1546 1547 1547 1548 1548 1547 1547 1547 1547 1546 1546 1546 1545 1544 1543 1542 1541 1540
1472 1476 1480 1484 1488 1493 1497 1501 1505 1508 1511 1515 1517 1520 1523 1526 1529 1531 1533 1535 1537 1538 1540 1542 1543 1545 1546 1546 1546 1546 1546 1546 1546 1545 1545 1545 1544 1544 1543 1542 1541 1540 1539
1467 1471 1475 1479 1484 1489 1493 1497 1501 1504 1507 1510 1513 1516 1519 1522 1525 1528 1530 1532 1534 1536 1538 1540 1541 1542 1544 1544 1544 1545 1545 1544 1544 1544 1544 1544 1543 1542 1542 1541 1540 1539 1538
1460 1464 1469 1473 1478 1483 1487 1490 1494 1497 1501 1504 1508 1512 1515 1518 1521 1524 1526 1529 1531 1533 1535 1538 1539 1540 1541 1542 1543 1543 1543 1543 1542 1542 1542 1542 1541 1541 1540 1540 1539 1537 1536
1452 1456 1461 1466 1471 1475 1479 1483 1488 1492 1496 1499 1503 1506 1510 1513 1516 1519 1522 1525 1528 1530 1532 1534 1536 1538 1539 1540 1542 1543 1543 1543 1540 1540 1540 1540 1540 1539 1538 1538 1537 1536 1534
1444 1448 1453 1458 1463 1468 1473 1478 1483 1488 1491 1494 1496 1499 1503 1507 1511 1514 1518 1521 1524 1526 1528 1531 1533 1535 1536 1538 1539 1541 1541 1541 1540 1539 1538 1538 1537 1537 1536 1535 1534 1533 1532
1436 1441 1446 1451 1456 1461 1466 1470 1474 1477 1481 1484 1488 1492 1496 1501 1505 1509 1512 1516 1519 1522 1524 1527 1529 1531 1533 1534 1535 1536 1538 1538 1539 1538 1537 1535 1535 1534 1534 1533 1532 1531 1529
1429 1433 1438 1444 1449 1453 1458 1462 1466 1470 1475 1479 1484 1487 1491 1494 1498 1503 1507 1511 1514 1517 1520 1523 1525 1527 1529 1531 1532 1533 1534 1534 1535 1536 1535 1534 1533 1532 1531 1530 1529 1528 1526
1421 1426 1431 1436 1440 1445 1450 1454 1458 1463 1468 1472 1476 1480 1484 1488 1492 1496 1501 1505 1508 1512 1515 1518 1521 1523 1525 1527 1528 1529 1530 1531 1531 1532 1532 1531 1530 1529 1528 1527 1525 1524 1523